Home   Weather   Erftstadt   Past weeks

Flag for Germany Past Weather in Erftstadt, North Rhine-Westphalia, Germany — Yesterday and Last 2 Weeks

Now
34 °F

Passing clouds.


Feels Like: 29 °F
Forecast: 15 / 29 °F
Wind: 6 mph from Southeast

Location: Noervenich

Current Time: Jan 21, 2017 at 12:05:27 pm

Latest Report: Jan 21, 2017 at 11:20 am


Visibility: N/A

Pressure: 30.39 "Hg

Humidity: 60%

Dew Point: 21 °F

Location of ErftstadtLocation

Past Weather in Erftstadt — Graph

°F

Erftstadt Temperature Yesterday

Maximum temperature yesterday: 37 °F (at 2:20 pm)
Minimum temperature yesterday: 16 °F (at 5:20 am)
Average temperature yesterday: 25 °F

High & Low Weather Summary for the Past Weeks

 TemperatureHumidityPressure
High46 °F (Jan 11, 12:20 pm)100% (Jan 7, 4:20 pm)30.74 "Hg (Jan 7, 4:20 pm)
Low16 °F (Jan 20, 5:20 am)41% (Jan 20, 2:20 pm)28.94 "Hg (Jan 13, 1:20 am)
Average32 °F85%30.18 "Hg
* Reported Jan 6 10:20 am — Jan 21 10:20 am, Erftstadt, Weather by CustomWeather, © 2017

Note: Actual official high and low records may vary slightly from our data, if they occured in-between our weather recording intervals... More about our weather records

Advertising

Erftstadt Weather History for the Previous 24 Hours

Scroll right to see more
 ConditionsComfort  
Time TempWeatherWind HumidityBarometerVisibility
10:20 am
Sat, Jan 21
28 °FScattered clouds.6 mph74%30.42 "HgN/A
9:20 am27 °FScattered clouds.5 mph74%30.42 "HgN/A
8:20 am27 °FPassing clouds.2 mph74%30.42 "HgN/A
7:20 am28 °FPassing clouds.5 mph69%30.39 "HgN/A
6:20 am27 °FPassing clouds.7 mph74%30.42 "HgN/A
5:20 am27 °FChilly.5 mph74%30.42 "HgN/A
4:20 am25 °FCold.6 mph80%30.42 "HgN/A
3:20 am23 °FCold.5 mph80%30.45 "HgN/A
2:20 am25 °FCold.6 mph74%30.45 "HgN/A
1:20 am23 °FCold.5 mph86%30.45 "HgN/A
12:20 am23 °FCold.3 mph86%30.48 "HgN/A
11:20 pm
Fri, Jan 20
25 °FPassing clouds.5 mph74%30.48 "HgN/A
10:20 pm25 °FPassing clouds.3 mph80%30.48 "HgN/A
9:20 pm27 °FPassing clouds.2 mph74%30.48 "HgN/A
8:20 pm28 °FPassing clouds.2 mph69%30.48 "HgN/A
7:20 pm30 °FPassing clouds.1 mph64%30.48 "HgN/A
6:20 pm28 °FPassing clouds.1 mph74%30.48 "HgN/A
5:20 pm34 °FPassing clouds.3 mph56%30.48 "HgN/A
4:20 pm37 °FPartly sunny.2 mph45%30.48 "HgN/A
3:20 pm37 °FPartly sunny.5 mph45%30.51 "HgN/A
2:20 pm37 °FPartly sunny.6 mph41%30.51 "HgN/A
1:20 pm34 °FPartly sunny.5 mph48%30.54 "HgN/A
12:20 pm32 °FScattered clouds.3 mph60%30.54 "HgN/A
Weather by CustomWeather, © 2017

See weather overviewHow to use our weather pages